Home > Weather > Paramus > Past weeks

Flag for USA Weather for the Past 2 Weeks in Paramus, New Jersey, USA

Now
48 °F

Overcast.


Feels Like: 44 °F
Forecast: 48 / 51 °F
Wind: 10 mph from Southeast

Location: Teterboro Airport

Current Time: May 1, 2016 at 3:49:21 PM

Latest Report: May 1, 2016 at 2:58 PM


Visibility: 10 mi

Pressure: 30.13 "Hg

Humidity: 82%

Dew Point: 43 °F

Location of ParamusLocation

Historic Weather in Paramus — Graph

°F

Paramus Temperature Yesterday

Maximum temperature yesterday: 62 °F (at 2:51 PM)
Minimum temperature yesterday: 47 °F (at 1:51 AM)
Average temperature yesterday: 53 °F

High & Low Weather Summary for the Past Weeks

 TemperatureHumidityPressure
High82 °F (Apr 22, 2:51 PM)88% (Apr 26, 6:01 AM)30.45 "Hg (Apr 26, 6:01 AM)
Low41 °F (Apr 17, 5:51 AM)8% (Apr 20, 3:51 PM)29.63 "Hg (Apr 26, 2:51 PM)
Average58 °F46%30.05 "Hg
* Reported Apr 16 1:51 PM — May 1 1:51 PM, Paramus, Weather by CustomWeather, © 2016

Note: Actual official high and low records may vary slightly from our data, if they occured in-between our weather recording intervals... More about our weather records

Advertising

Paramus Weather History for the Previous 24 Hours

Scroll right to see more
 ConditionsComfort  
Time TempWeatherWind HumidityBarometerVisibility
1:51 PM
Sun, May 1
48 °FMostly cloudy.10 mph77%30.15 "Hg10 mi
12:51 PM49 °FLight rain. Mostly cloudy.9 mph74%30.16 "Hg5 mi
11:51 AM49 °FLight rain. Mostly cloudy.6 mph77%30.17 "Hg4 mi
10:51 AM49 °FLight rain. More clouds than sun.3 mph77%30.19 "Hg7 mi
9:51 AM48 °FLight rain. Mostly cloudy.No wind71%30.20 "Hg5 mi
8:51 AM48 °FLight rain. Overcast.5 mph66%30.22 "Hg8 mi
7:51 AM50 °FLight rain. Overcast.6 mph66%30.20 "Hg10 mi
6:51 AM51 °FOvercast.5 mph54%30.19 "Hg10 mi
5:51 AM50 °FLight rain. Overcast.No wind57%30.18 "Hg10 mi
4:51 AM50 °FLight rain. Overcast.3 mph57%30.18 "Hg10 mi
3:51 AM50 °FLight rain. Overcast.3 mph59%30.19 "Hg10 mi
2:51 AM50 °FPassing clouds.3 mph61%30.19 "Hg10 mi
1:51 AM50 °FClear.5 mph57%30.20 "Hg10 mi
12:51 AM51 °FClear.5 mph56%30.22 "Hg10 mi
11:51 PM
Sat, Apr 30
51 °FClear.5 mph56%30.22 "Hg10 mi
10:51 PM51 °FClear.No wind52%30.22 "Hg10 mi
9:51 PM52 °FClear.3 mph47%30.22 "Hg10 mi
8:51 PM53 °FSunny.6 mph43%30.22 "Hg10 mi
7:51 PM54 °FSunny.8 mph47%30.22 "Hg10 mi
6:51 PM58 °FSunny.8 mph36%30.21 "Hg10 mi
5:51 PM60 °FSunny.12 mph33%30.19 "Hg10 mi
4:51 PM61 °FSunny.9 mph31%30.19 "Hg10 mi
3:51 PM62 °FSunny.12 mph32%30.18 "Hg10 mi
Weather by CustomWeather, © 2016

See weather overviewHow to use our weather pages